Location: Maccacari
(45.1333°N, 11.1333°E)
Time: 08:40:44
(UTC+00:00)

Cosmos 1536 Rocket - Pass Details

Date: 18 September 2020
Orbit: 606 x 632 km, 82.5° (Epoch: 29 October)

Event Time Altitude Azimuth Distance (km) Brightness Sun altitude
Rises 18:32:28 0° 358° (N) 2,915 7.3 -13.4°
Reaches altitude 10° 18:34:50 10° 6° (N) 2,007 6.3 -13.8°
Maximum altitude 18:39:01 39° 76° (ENE) 952 4.1 -14.5°
Enters shadow 18:41:17 23° 130° (SE) 1,353 4.7 -14.9°
